owner,sensor,date,latitude,longitude,vertical_datum,direction_of_sea_water_velocity,sea_water_speed,upward_sea_water_velocity,qcFlag 
TABS,ioos:station:wmo:42051:1,2019-02-01T00:00:00Z,29.6350,-93.6417,2.0,252.5167338,33.68606982,-99999.0,'11111222,11111222,99999999' 
TABS,ioos:station:wmo:42051:1,2019-02-01T00:30:00Z,29.6350,-93.6417,2.0,253.5433513,26.65175604,-99999.0,'11111222,11111222,99999999' 
TABS,ioos:station:wmo:42051:1,2019-02-01T01:00:00Z,29.6350,-93.6417,2.0,254.0436255,37.14092352,-99999.0,'11111222,11111222,99999999' 
TABS,ioos:station:wmo:42051:1,2019-02-01T01:30:00Z,29.6350,-93.6417,2.0,257.6110569,36.7763307,-99999.0,'11111222,11111222,99999999' 
TABS,ioos:station:wmo:42051:1,2019-02-01T02:00:00Z,29.6350,-93.6417,2.0,256.9953291,31.10781413,-99999.0,'11111222,11111222,99999999' 
TABS,ioos:station:wmo:42051:1,2019-02-01T02:30:00Z,29.6350,-93.6417,2.0,261.3620422,33.69213113,-99999.0,'11111222,11111222,99999999' 
TABS,ioos:station:wmo:42051:1,2019-02-01T03:00:00Z,29.6350,-93.6417,2.0,263.9819971,34.91237603,-99999.0,'11111222,11111222,99999999' 
TABS,ioos:station:wmo:42051:1,2019-02-01T03:30:00Z,29.6350,-93.6417,2.0,273.3385185,26.10429084,-99999.0,'11111222,11111222,99999999' 
TABS,ioos:station:wmo:42051:1,2019-02-01T04:00:00Z,29.6350,-93.6417,2.0,252.7961822,29.27996755,-99999.0,'11111222,11111222,99999999' 
TABS,ioos:station:wmo:42051:1,2019-02-01T04:30:00Z,29.6350,-93.6417,2.0,264.0552585,37.56197146,-99999.0,'11111222,11111222,99999999' 
TABS,ioos:station:wmo:42051:1,2019-02-01T05:00:00Z,29.6350,-93.6417,2.0,255.8040231,38.37170963,-99999.0,'11111222,11111222,99999999' 
TABS,ioos:station:wmo:42051:1,2019-02-01T05:30:00Z,29.6350,-93.6417,2.0,264.8676245,34.87982225,-99999.0,'11111222,11111222,99999999' 
TABS,ioos:station:wmo:42051:1,2019-02-01T06:00:00Z,29.6350,-93.6417,2.0,268.1115742,35.20911388,-99999.0,'11111222,11111222,99999999' 
TABS,ioos:station:wmo:42051:1,2019-02-01T06:30:00Z,29.6350,-93.6417,2.0,271.1264317,29.00560118,-99999.0,'11111222,11111222,99999999' 
TABS,ioos:station:wmo:42051:1,2019-02-01T07:00:00Z,29.6350,-93.6417,2.0,259.366695,31.86717433,-99999.0,'11111222,11111222,99999999' 
TABS,ioos:station:wmo:42051:1,2019-02-01T07:30:00Z,29.6350,-93.6417,2.0,256.5183398,40.06391394,-99999.0,'11111222,11111222,99999999' 
TABS,ioos:station:wmo:42051:1,2019-02-01T08:00:00Z,29.6350,-93.6417,2.0,257.3145108,32.60585377,-99999.0,'11111222,11111222,99999999' 
TABS,ioos:station:wmo:42051:1,2019-02-01T08:30:00Z,29.6350,-93.6417,2.0,252.5810447,35.4768502,-99999.0,'11111222,11111222,99999999' 
TABS,ioos:station:wmo:42051:1,2019-02-01T09:00:00Z,29.6350,-93.6417,2.0,255.0711223,37.84742263,-99999.0,'11111222,11111222,99999999' 
TABS,ioos:station:wmo:42051:1,2019-02-01T09:30:00Z,29.6350,-93.6417,2.0,255.3355934,35.19645721,-99999.0,'11111222,11111222,99999999' 
TABS,ioos:station:wmo:42051:1,2019-02-01T10:00:00Z,29.6350,-93.6417,2.0,251.6001945,35.70528392,-99999.0,'11111222,11111222,99999999' 
TABS,ioos:station:wmo:42051:1,2019-02-01T10:30:00Z,29.6350,-93.6417,2.0,250.3107899,37.42819392,-99999.0,'11111222,11111222,99999999' 
TABS,ioos:station:wmo:42051:1,2019-02-01T11:00:00Z,29.6350,-93.6417,2.0,251.0160699,38.64164205,-99999.0,'11111222,11111222,99999999' 
TABS,ioos:station:wmo:42051:1,2019-02-01T11:30:00Z,29.6350,-93.6417,2.0,256.5143408,38.33695345,-99999.0,'11111222,11111222,99999999' 
TABS,ioos:station:wmo:42051:1,2019-02-01T12:00:00Z,29.6350,-93.6417,2.0,250.3229766,35.46062182,-99999.0,'11111222,11111222,99999999' 
TABS,ioos:station:wmo:42051:1,2019-02-01T12:30:00Z,29.6350,-93.6417,2.0,254.8060007,37.5837119,-99999.0,'11111222,11111222,99999999' 
TABS,ioos:station:wmo:42051:1,2019-02-01T13:00:00Z,29.6350,-93.6417,2.0,261.5385345,41.86566254,-99999.0,'11111222,11111222,99999999' 
TABS,ioos:station:wmo:42051:1,2019-02-01T13:30:00Z,29.6350,-93.6417,2.0,262.5180812,36.48056195,-99999.0,'11111222,11111222,99999999' 
TABS,ioos:station:wmo:42051:1,2019-02-01T14:00:00Z,29.6350,-93.6417,2.0,263.0968579,40.60431627,-99999.0,'11111222,11111222,99999999' 
TABS,ioos:station:wmo:42051:1,2019-02-01T14:30:00Z,29.6350,-93.6417,2.0,258.8850017,38.54292802,-99999.0,'11111222,11111222,99999999' 
TABS,ioos:station:wmo:42051:1,2019-02-01T15:00:00Z,29.6350,-93.6417,2.0,262.7021777,36.68715988,-99999.0,'11111222,11111222,99999999' 
TABS,ioos:station:wmo:42051:1,2019-02-01T15:30:00Z,29.6350,-93.6417,2.0,272.4981228,30.51899409,-99999.0,'11111222,11111222,99999999' 
TABS,ioos:station:wmo:42051:1,2019-02-01T16:00:00Z,29.6350,-93.6417,2.0,266.6196207,39.85933517,-99999.0,'11111222,11111222,99999999' 
TABS,ioos:station:wmo:42051:1,2019-02-01T16:30:00Z,29.6350,-93.6417,2.0,256.9662532,38.79951675,-99999.0,'11111222,11111222,99999999' 
TABS,ioos:station:wmo:42051:1,2019-02-01T17:00:00Z,29.6350,-93.6417,2.0,253.8155775,41.22363642,-99999.0,'11111222,11111222,99999999' 
TABS,ioos:station:wmo:42051:1,2019-02-01T17:30:00Z,29.6350,-93.6417,2.0,254.2958325,35.50527426,-99999.0,'11111222,11111222,99999999' 
TABS,ioos:station:wmo:42051:1,2019-02-01T18:00:00Z,29.6350,-93.6417,2.0,257.9805085,37.55323288,-99999.0,'11111222,11111222,99999999' 
TABS,ioos:station:wmo:42051:1,2019-02-01T18:30:00Z,29.6350,-93.6417,2.0,259.4453788,36.57884088,-99999.0,'11111222,11111222,99999999' 
TABS,ioos:station:wmo:42051:1,2019-02-01T19:00:00Z,29.6350,-93.6417,2.0,261.3535527,53.08324406,-99999.0,'11111222,11111222,99999999' 
TABS,ioos:station:wmo:42051:1,2019-02-01T19:30:00Z,29.6350,-93.6417,2.0,263.004018,54.3546401,-99999.0,'11111222,11111222,99999999' 
TABS,ioos:station:wmo:42051:1,2019-02-01T20:00:00Z,29.6350,-93.6417,2.0,265.1089338,59.93822236,-99999.0,'11111222,11111222,99999999' 
TABS,ioos:station:wmo:42051:1,2019-02-01T20:30:00Z,29.6350,-93.6417,2.0,265.8009926,62.14678511,-99999.0,'11111222,11111222,99999999' 
TABS,ioos:station:wmo:42051:1,2019-02-01T21:00:00Z,29.6350,-93.6417,2.0,268.6089215,53.56577732,-99999.0,'11111222,11111222,99999999' 
TABS,ioos:station:wmo:42051:1,2019-02-01T21:30:00Z,29.6350,-93.6417,2.0,279.3685446,57.01035783,-99999.0,'11111222,11111222,99999999' 
TABS,ioos:station:wmo:42051:1,2019-02-01T22:00:00Z,29.6350,-93.6417,2.0,277.1229208,56.85876274,-99999.0,'11111222,11111222,99999999' 
TABS,ioos:station:wmo:42051:1,2019-02-01T22:30:00Z,29.6350,-93.6417,2.0,278.3602275,55.02466356,-99999.0,'11111222,11111222,99999999' 
TABS,ioos:station:wmo:42051:1,2019-02-01T23:00:00Z,29.6350,-93.6417,2.0,284.2241129,48.91969746,-99999.0,'11111222,11111222,99999999' 
TABS,ioos:station:wmo:42051:1,2019-02-01T23:30:00Z,29.6350,-93.6417,2.0,290.4169582,44.71921399,-99999.0,'11111222,11111222,99999999' 
TABS,ioos:station:wmo:42051:1,2019-02-02T00:00:00Z,29.6350,-93.6417,2.0,297.8178656,38.46508677,-99999.0,'11111222,11111222,99999999' 
TABS,ioos:station:wmo:42051:1,2019-02-02T00:30:00Z,29.6350,-93.6417,2.0,300.2754661,41.951584,-99999.0,'11111222,11111222,99999999' 
TABS,ioos:station:wmo:42051:1,2019-02-02T01:00:00Z,29.6350,-93.6417,2.0,303.8176362,43.71603024,-99999.0,'11111222,11111222,99999999' 
TABS,ioos:station:wmo:42051:1,2019-02-02T01:30:00Z,29.6350,-93.6417,2.0,305.7327378,42.41435842,-99999.0,'11111222,11111222,99999999' 
TABS,ioos:station:wmo:42051:1,2019-02-02T02:00:00Z,29.6350,-93.6417,2.0,305.0797063,46.2145648,-99999.0,'11111222,11111222,99999999' 
TABS,ioos:station:wmo:42051:1,2019-02-02T02:30:00Z,29.6350,-93.6417,2.0,303.7253375,45.49651855,-99999.0,'11111222,11111222,99999999' 
TABS,ioos:station:wmo:42051:1,2019-02-02T03:00:00Z,29.6350,-93.6417,2.0,299.9909311,44.83276703,-99999.0,'11111222,11111222,99999999' 
TABS,ioos:station:wmo:42051:1,2019-02-02T03:30:00Z,29.6350,-93.6417,2.0,306.1829389,39.34883099,-99999.0,'11111222,11111222,99999999' 
TABS,ioos:station:wmo:42051:1,2019-02-02T04:00:00Z,29.6350,-93.6417,2.0,305.2502507,40.0420042,-99999.0,'11111222,11111222,99999999' 
TABS,ioos:station:wmo:42051:1,2019-02-02T04:30:00Z,29.6350,-93.6417,2.0,304.0082577,40.49651096,-99999.0,'11111222,11111222,99999999' 
TABS,ioos:station:wmo:42051:1,2019-02-02T05:00:00Z,29.6350,-93.6417,2.0,302.5981896,36.08425696,-99999.0,'11111222,11111222,99999999' 
TABS,ioos:station:wmo:42051:1,2019-02-02T05:30:00Z,29.6350,-93.6417,2.0,310.7868083,38.59213003,-99999.0,'11111222,11111222,99999999' 
TABS,ioos:station:wmo:42051:1,2019-02-02T06:00:00Z,29.6350,-93.6417,2.0,303.6489845,34.52454924,-99999.0,'11111222,11111222,99999999' 
TABS,ioos:station:wmo:42051:1,2019-02-02T06:30:00Z,29.6350,-93.6417,2.0,297.5120004,29.50670771,-99999.0,'11111222,11111222,99999999' 
TABS,ioos:station:wmo:42051:1,2019-02-02T07:00:00Z,29.6350,-93.6417,2.0,290.7070693,30.71404402,-99999.0,'11111222,11111222,99999999' 
TABS,ioos:station:wmo:42051:1,2019-02-02T07:30:00Z,29.6350,-93.6417,2.0,291.0058275,32.08196534,-99999.0,'11111222,11111222,99999999' 
TABS,ioos:station:wmo:42051:1,2019-02-02T08:00:00Z,29.6350,-93.6417,2.0,291.2365492,26.9178491,-99999.0,'11111222,11111222,99999999' 
TABS,ioos:station:wmo:42051:1,2019-02-02T08:30:00Z,29.6350,-93.6417,2.0,276.2133417,31.32397963,-99999.0,'11111222,11111222,99999999' 
TABS,ioos:station:wmo:42051:1,2019-02-02T09:00:00Z,29.6350,-93.6417,2.0,290.9724823,25.7883559,-99999.0,'11111222,11111222,99999999' 
TABS,ioos:station:wmo:42051:1,2019-02-02T09:30:00Z,29.6350,-93.6417,2.0,289.5150589,22.99067855,-99999.0,'11111222,11111222,99999999' 
TABS,ioos:station:wmo:42051:1,2019-02-02T10:00:00Z,29.6350,-93.6417,2.0,295.0931562,22.8020043,-99999.0,'11111222,11111222,99999999' 
TABS,ioos:station:wmo:42051:1,2019-02-02T10:30:00Z,29.6350,-93.6417,2.0,287.8325845,21.94425893,-99999.0,'11111222,11111222,99999999' 
TABS,ioos:station:wmo:42051:1,2019-02-02T11:00:00Z,29.6350,-93.6417,2.0,288.6180746,22.8033002,-99999.0,'11111222,11111222,99999999' 
TABS,ioos:station:wmo:42051:1,2019-02-02T11:30:00Z,29.6350,-93.6417,2.0,296.6425981,23.23723951,-99999.0,'11111222,11111222,99999999' 
TABS,ioos:station:wmo:42051:1,2019-02-02T12:00:00Z,29.6350,-93.6417,2.0,291.1020015,26.30384953,-99999.0,'11111222,11111222,99999999' 
TABS,ioos:station:wmo:42051:1,2019-02-02T12:30:00Z,29.6350,-93.6417,2.0,294.0664072,24.71864276,-99999.0,'11111222,11111222,99999999' 
TABS,ioos:station:wmo:42051:1,2019-02-02T13:00:00Z,29.6350,-93.6417,2.0,291.514196,27.37740857,-99999.0,'11111222,11111222,99999999' 
TABS,ioos:station:wmo:42051:1,2019-02-02T13:30:00Z,29.6350,-93.6417,2.0,280.8896731,28.849461,-99999.0,'11111222,11111222,99999999' 
TABS,ioos:station:wmo:42051:1,2019-02-02T14:00:00Z,29.6350,-93.6417,2.0,291.1756973,23.28201452,-99999.0,'11111222,11111222,99999999' 
TABS,ioos:station:wmo:42051:1,2019-02-02T14:30:00Z,29.6350,-93.6417,2.0,280.1729612,29.44283274,-99999.0,'11111222,11111222,99999999' 
TABS,ioos:station:wmo:42051:1,2019-02-02T15:00:00Z,29.6350,-93.6417,2.0,277.7698623,24.04069259,-99999.0,'11111222,11111222,99999999' 
TABS,ioos:station:wmo:42051:1,2019-02-02T15:30:00Z,29.6350,-93.6417,2.0,278.3207302,25.98348899,-99999.0,'11111222,11111222,99999999' 
TABS,ioos:station:wmo:42051:1,2019-02-02T16:00:00Z,29.6350,-93.6417,2.0,276.5298224,28.75652622,-99999.0,'11111222,11111222,99999999' 
TABS,ioos:station:wmo:42051:1,2019-02-02T16:30:00Z,29.6350,-93.6417,2.0,280.6200514,26.53447757,-99999.0,'11111222,11111222,99999999' 
TABS,ioos:station:wmo:42051:1,2019-02-02T17:00:00Z,29.6350,-93.6417,2.0,276.3405978,26.62283231,-99999.0,'11111222,11111222,99999999' 
TABS,ioos:station:wmo:42051:1,2019-02-02T17:30:00Z,29.6350,-93.6417,2.0,277.2105939,30.03752486,-99999.0,'11111222,11111222,99999999' 
TABS,ioos:station:wmo:42051:1,2019-02-02T18:00:00Z,29.6350,-93.6417,2.0,283.9036027,31.33811258,-99999.0,'11111222,11111222,99999999' 
TABS,ioos:station:wmo:42051:1,2019-02-02T18:30:00Z,29.6350,-93.6417,2.0,279.4514926,33.55547794,-99999.0,'11111222,11111222,99999999' 
TABS,ioos:station:wmo:42051:1,2019-02-02T19:00:00Z,29.6350,-93.6417,2.0,274.5262596,34.21669329,-99999.0,'11111222,11111222,99999999' 
TABS,ioos:station:wmo:42051:1,2019-02-02T19:30:00Z,29.6350,-93.6417,2.0,269.5626332,31.47091514,-99999.0,'11111222,11111222,99999999' 
TABS,ioos:station:wmo:42051:1,2019-02-02T20:00:00Z,29.6350,-93.6417,2.0,264.9050947,33.22123718,-99999.0,'11111222,11111222,99999999' 
TABS,ioos:station:wmo:42051:1,2019-02-02T20:30:00Z,29.6350,-93.6417,2.0,267.1967554,31.69791949,-99999.0,'11111222,11111222,99999999' 
TABS,ioos:station:wmo:42051:1,2019-02-02T21:00:00Z,29.6350,-93.6417,2.0,260.2726198,27.04885395,-99999.0,'11111222,11111222,99999999' 
TABS,ioos:station:wmo:42051:1,2019-02-02T21:30:00Z,29.6350,-93.6417,2.0,241.0305001,24.09471519,-99999.0,'11111222,11111222,99999999' 
TABS,ioos:station:wmo:42051:1,2019-02-02T22:00:00Z,29.6350,-93.6417,2.0,247.5500746,21.99702025,-99999.0,'11111222,11111222,99999999' 
TABS,ioos:station:wmo:42051:1,2019-02-02T22:30:00Z,29.6350,-93.6417,2.0,240.3205393,17.2879727,-99999.0,'11111222,11111222,99999999' 
TABS,ioos:station:wmo:42051:1,2019-02-02T23:00:00Z,29.6350,-93.6417,2.0,209.7943371,14.28880681,-99999.0,'11111222,11111222,99999999' 
TABS,ioos:station:wmo:42051:1,2019-02-02T23:30:00Z,29.6350,-93.6417,2.0,206.7584377,9.261846468,-99999.0,'11133222,11111222,99999999' 
TABS,ioos:station:wmo:42051:1,2019-02-03T00:00:00Z,29.6350,-93.6417,2.0,201.5808216,10.1408974,-99999.0,'11111222,11111222,99999999' 
TABS,ioos:station:wmo:42051:1,2019-02-03T00:30:00Z,29.6350,-93.6417,2.0,207.8003755,11.40659897,-99999.0,'11111222,11111222,99999999' 
TABS,ioos:station:wmo:42051:1,2019-02-03T01:00:00Z,29.6350,-93.6417,2.0,217.2932967,8.384229243,-99999.0,'11133222,11111222,99999999' 
TABS,ioos:station:wmo:42051:1,2019-02-03T01:30:00Z,29.6350,-93.6417,2.0,202.1386538,7.881046885,-99999.0,'11133222,11111222,99999999' 
TABS,ioos:station:wmo:42051:1,2019-02-03T02:00:00Z,29.6350,-93.6417,2.0,236.3874376,12.24779164,-99999.0,'11111222,11111222,99999999' 
TABS,ioos:station:wmo:42051:1,2019-02-03T02:30:00Z,29.6350,-93.6417,2.0,238.9162031,10.67238024,-99999.0,'11111222,11111222,99999999' 
TABS,ioos:station:wmo:42051:1,2019-02-03T03:00:00Z,29.6350,-93.6417,2.0,245.0509694,10.14684187,-99999.0,'11111222,11111222,99999999' 
TABS,ioos:station:wmo:42051:1,2019-02-03T03:30:00Z,29.6350,-93.6417,2.0,245.1440508,10.94371509,-99999.0,'11111222,11111222,99999999' 
TABS,ioos:station:wmo:42051:1,2019-02-03T04:00:00Z,29.6350,-93.6417,2.0,256.0005541,18.68494849,-99999.0,'11111222,11111222,99999999' 
TABS,ioos:station:wmo:42051:1,2019-02-03T04:30:00Z,29.6350,-93.6417,2.0,253.8905592,16.83085856,-99999.0,'11111222,11111222,99999999' 
TABS,ioos:station:wmo:42051:1,2019-02-03T05:00:00Z,29.6350,-93.6417,2.0,282.8948591,27.8728775,-99999.0,'11111222,11111222,99999999' 
TABS,ioos:station:wmo:42051:1,2019-02-03T05:30:00Z,29.6350,-93.6417,2.0,277.4360288,29.28627153,-99999.0,'11111222,11111222,99999999' 
TABS,ioos:station:wmo:42051:1,2019-02-03T06:00:00Z,29.6350,-93.6417,2.0,276.7816983,29.97973482,-99999.0,'11111222,11111222,99999999' 
TABS,ioos:station:wmo:42051:1,2019-02-03T06:30:00Z,29.6350,-93.6417,2.0,272.2387923,32.00442001,-99999.0,'11111222,11111222,99999999' 
TABS,ioos:station:wmo:42051:1,2019-02-03T07:00:00Z,29.6350,-93.6417,2.0,273.9336684,29.74004876,-99999.0,'11111222,11111222,99999999' 
TABS,ioos:station:wmo:42051:1,2019-02-03T07:30:00Z,29.6350,-93.6417,2.0,272.8762776,31.89016306,-99999.0,'11111222,11111222,99999999' 
TABS,ioos:station:wmo:42051:1,2019-02-03T08:00:00Z,29.6350,-93.6417,2.0,269.8520053,31.06010303,-99999.0,'11111222,11111222,99999999' 
TABS,ioos:station:wmo:42051:1,2019-02-03T08:30:00Z,29.6350,-93.6417,2.0,262.1937972,30.48244741,-99999.0,'11111222,11111222,99999999' 
TABS,ioos:station:wmo:42051:1,2019-02-03T09:00:00Z,29.6350,-93.6417,2.0,266.4220668,30.12871222,-99999.0,'11111222,11111222,99999999' 
TABS,ioos:station:wmo:42051:1,2019-02-03T09:30:00Z,29.6350,-93.6417,2.0,264.1429655,23.81430243,-99999.0,'11111222,11111222,99999999' 
TABS,ioos:station:wmo:42051:1,2019-02-03T10:00:00Z,29.6350,-93.6417,2.0,255.0521705,23.02924445,-99999.0,'11111222,11111222,99999999' 
TABS,ioos:station:wmo:42051:1,2019-02-03T10:30:00Z,29.6350,-93.6417,2.0,255.8091319,20.72231889,-99999.0,'11111222,11111222,99999999' 
TABS,ioos:station:wmo:42051:1,2019-02-03T11:00:00Z,29.6350,-93.6417,2.0,259.2790177,26.50257535,-99999.0,'11111222,11111222,99999999' 
TABS,ioos:station:wmo:42051:1,2019-02-03T11:30:00Z,29.6350,-93.6417,2.0,262.378089,18.32185853,-99999.0,'11111222,11111222,99999999' 
TABS,ioos:station:wmo:42051:1,2019-02-03T12:00:00Z,29.6350,-93.6417,2.0,247.6207875,24.13790587,-99999.0,'11111222,11111222,99999999' 
TABS,ioos:station:wmo:42051:1,2019-02-03T12:30:00Z,29.6350,-93.6417,2.0,256.8727468,20.78307003,-99999.0,'11111222,11111222,99999999' 
TABS,ioos:station:wmo:42051:1,2019-02-03T13:00:00Z,29.6350,-93.6417,2.0,249.8633227,19.17185437,-99999.0,'11111222,11111222,99999999' 
TABS,ioos:station:wmo:42051:1,2019-02-03T13:30:00Z,29.6350,-93.6417,2.0,258.4752726,17.8192368,-99999.0,'11111222,11111222,99999999' 
TABS,ioos:station:wmo:42051:1,2019-02-03T14:00:00Z,29.6350,-93.6417,2.0,254.7821823,16.00104997,-99999.0,'11111222,11111222,99999999' 
TABS,ioos:station:wmo:42051:1,2019-02-03T14:30:00Z,29.6350,-93.6417,2.0,266.4516088,12.60415804,-99999.0,'11111222,11111222,99999999' 
TABS,ioos:station:wmo:42051:1,2019-02-03T15:00:00Z,29.6350,-93.6417,2.0,261.652247,15.29200118,-99999.0,'11111222,11111222,99999999' 
TABS,ioos:station:wmo:42051:1,2019-02-03T15:30:00Z,29.6350,-93.6417,2.0,265.5345046,8.606119916,-99999.0,'11133222,11111222,99999999' 
TABS,ioos:station:wmo:42051:1,2019-02-03T16:00:00Z,29.6350,-93.6417,2.0,259.4103859,13.87631435,-99999.0,'11111222,11111222,99999999' 
TABS,ioos:station:wmo:42051:1,2019-02-03T16:30:00Z,29.6350,-93.6417,2.0,264.9857026,12.92947408,-99999.0,'11111222,11111222,99999999' 
TABS,ioos:station:wmo:42051:1,2019-02-03T17:00:00Z,29.6350,-93.6417,2.0,252.6833567,15.38741369,-99999.0,'11111222,11111222,99999999' 
TABS,ioos:station:wmo:42051:1,2019-02-03T17:30:00Z,29.6350,-93.6417,2.0,261.3584025,14.11017009,-99999.0,'11111222,11111222,99999999' 
TABS,ioos:station:wmo:42051:1,2019-02-03T18:00:00Z,29.6350,-93.6417,2.0,289.5813844,12.17404206,-99999.0,'11111222,11111222,99999999' 
TABS,ioos:station:wmo:42051:1,2019-02-03T18:30:00Z,29.6350,-93.6417,2.0,279.6076079,13.00235748,-99999.0,'11111222,11111222,99999999' 
TABS,ioos:station:wmo:42051:1,2019-02-03T19:00:00Z,29.6350,-93.6417,2.0,281.2299434,12.58086245,-99999.0,'11111222,11111222,99999999' 
TABS,ioos:station:wmo:42051:1,2019-02-03T19:30:00Z,29.6350,-93.6417,2.0,279.1649234,16.76399117,-99999.0,'11111222,11111222,99999999' 
TABS,ioos:station:wmo:42051:1,2019-02-03T20:00:00Z,29.6350,-93.6417,2.0,276.63292,13.41981371,-99999.0,'11111222,11111222,99999999' 
TABS,ioos:station:wmo:42051:1,2019-02-03T20:30:00Z,29.6350,-93.6417,2.0,282.0259331,12.7191234,-99999.0,'11111222,11111222,99999999' 
TABS,ioos:station:wmo:42051:1,2019-02-03T21:00:00Z,29.6350,-93.6417,2.0,282.3529169,16.92174045,-99999.0,'11111222,11111222,99999999' 
TABS,ioos:station:wmo:42051:1,2019-02-03T21:30:00Z,29.6350,-93.6417,2.0,273.2660012,13.34166406,-99999.0,'11111222,11111222,99999999' 
TABS,ioos:station:wmo:42051:1,2019-02-03T22:00:00Z,29.6350,-93.6417,2.0,259.7787518,14.03268328,-99999.0,'11111222,11111222,99999999' 
TABS,ioos:station:wmo:42051:1,2019-02-03T22:30:00Z,29.6350,-93.6417,2.0,257.5769036,11.71426481,-99999.0,'11111222,11111222,99999999' 
TABS,ioos:station:wmo:42051:1,2019-02-03T23:00:00Z,29.6350,-93.6417,2.0,246.704287,9.330648423,-99999.0,'11133222,11111222,99999999' 
TABS,ioos:station:wmo:42051:1,2019-02-03T23:30:00Z,29.6350,-93.6417,2.0,234.2967035,11.68642375,-99999.0,'11111222,11111222,99999999' 
TABS,ioos:station:wmo:42051:1,2019-02-04T00:00:00Z,29.6350,-93.6417,2.0,247.4631404,12.15847441,-99999.0,'11111222,11111222,99999999' 
TABS,ioos:station:wmo:42051:1,2019-02-04T00:30:00Z,29.6350,-93.6417,2.0,246.3203475,9.860147058,-99999.0,'11133222,11111222,99999999' 
TABS,ioos:station:wmo:42051:1,2019-02-04T01:00:00Z,29.6350,-93.6417,2.0,210.7066265,10.71190926,-99999.0,'11111222,11111222,99999999' 
TABS,ioos:station:wmo:42051:1,2019-02-04T01:30:00Z,29.6350,-93.6417,2.0,210.2362501,12.43121877,-99999.0,'11111222,11111222,99999999' 
TABS,ioos:station:wmo:42051:1,2019-02-04T02:00:00Z,29.6350,-93.6417,2.0,253.2869996,8.206655835,-99999.0,'11133222,11111222,99999999' 
TABS,ioos:station:wmo:42051:1,2019-02-04T02:30:00Z,29.6350,-93.6417,2.0,291.1526433,38.35411973,-99999.0,'11111222,11111222,99999999' 
TABS,ioos:station:wmo:42051:1,2019-02-04T03:00:00Z,29.6350,-93.6417,2.0,287.8567682,44.15713419,-99999.0,'11111222,11111222,99999999' 
TABS,ioos:station:wmo:42051:1,2019-02-04T03:30:00Z,29.6350,-93.6417,2.0,283.3484078,39.98003127,-99999.0,'11111222,11111222,99999999' 
TABS,ioos:station:wmo:42051:1,2019-02-04T04:00:00Z,29.6350,-93.6417,2.0,282.3047067,41.24747386,-99999.0,'11111222,11111222,99999999' 
TABS,ioos:station:wmo:42051:1,2019-02-04T04:30:00Z,29.6350,-93.6417,2.0,278.0477343,43.07416163,-99999.0,'11111222,11111222,99999999' 
TABS,ioos:station:wmo:42051:1,2019-02-04T05:00:00Z,29.6350,-93.6417,2.0,271.8789778,41.18213326,-99999.0,'11111222,11111222,99999999' 
TABS,ioos:station:wmo:42051:1,2019-02-04T05:30:00Z,29.6350,-93.6417,2.0,280.218592,34.89343348,-99999.0,'11111222,11111222,99999999' 
TABS,ioos:station:wmo:42051:1,2019-02-04T06:00:00Z,29.6350,-93.6417,2.0,270.4349245,38.24109962,-99999.0,'11111222,11111222,99999999' 
TABS,ioos:station:wmo:42051:1,2019-02-04T06:30:00Z,29.6350,-93.6417,2.0,271.0505619,35.46595692,-99999.0,'11111222,11111222,99999999' 
TABS,ioos:station:wmo:42051:1,2019-02-04T07:00:00Z,29.6350,-93.6417,2.0,266.6124195,32.49676907,-99999.0,'11111222,11111222,99999999' 
TABS,ioos:station:wmo:42051:1,2019-02-04T07:30:00Z,29.6350,-93.6417,2.0,267.9007797,29.48978298,-99999.0,'11111222,11111222,99999999' 
TABS,ioos:station:wmo:42051:1,2019-02-04T08:00:00Z,29.6350,-93.6417,2.0,261.4437545,35.01972301,-99999.0,'11111222,11111222,99999999' 
TABS,ioos:station:wmo:42051:1,2019-02-04T08:30:00Z,29.6350,-93.6417,2.0,262.8061258,31.14514408,-99999.0,'11111222,11111222,99999999' 
TABS,ioos:station:wmo:42051:1,2019-02-04T09:00:00Z,29.6350,-93.6417,2.0,253.1373372,29.95805401,-99999.0,'11111222,11111222,99999999' 
TABS,ioos:station:wmo:42051:1,2019-02-04T09:30:00Z,29.6350,-93.6417,2.0,250.6091106,25.0297463,-99999.0,'11111222,11111222,99999999' 
TABS,ioos:station:wmo:42051:1,2019-02-04T10:00:00Z,29.6350,-93.6417,2.0,258.8332012,24.26944787,-99999.0,'11111222,11111222,99999999' 
TABS,ioos:station:wmo:42051:1,2019-02-04T10:30:00Z,29.6350,-93.6417,2.0,253.3958287,24.14683416,-99999.0,'11111222,11111222,99999999' 
TABS,ioos:station:wmo:42051:1,2019-02-04T11:00:00Z,29.6350,-93.6417,2.0,278.8810593,36.59874451,-99999.0,'11111222,11111222,99999999' 
TABS,ioos:station:wmo:42051:1,2019-02-04T11:30:00Z,29.6350,-93.6417,2.0,279.3174852,38.91336531,-99999.0,'11111222,11111222,99999999' 
TABS,ioos:station:wmo:42051:1,2019-02-04T12:00:00Z,29.6350,-93.6417,2.0,267.5831198,47.67239243,-99999.0,'11111222,11111222,99999999' 
TABS,ioos:station:wmo:42051:1,2019-02-04T12:30:00Z,29.6350,-93.6417,2.0,259.2584045,37.93465171,-99999.0,'11111222,11111222,99999999' 
TABS,ioos:station:wmo:42051:1,2019-02-04T13:00:00Z,29.6350,-93.6417,2.0,251.7001238,37.45412127,-99999.0,'11111222,11111222,99999999' 
TABS,ioos:station:wmo:42051:1,2019-02-04T13:30:00Z,29.6350,-93.6417,2.0,269.3726609,32.90196955,-99999.0,'11111222,11111222,99999999' 
TABS,ioos:station:wmo:42051:1,2019-02-04T14:00:00Z,29.6350,-93.6417,2.0,244.3462834,35.13307558,-99999.0,'11111222,11111222,99999999' 
TABS,ioos:station:wmo:42051:1,2019-02-04T14:30:00Z,29.6350,-93.6417,2.0,250.3125089,35.88777229,-99999.0,'11111222,11111222,99999999' 
TABS,ioos:station:wmo:42051:1,2019-02-04T15:00:00Z,29.6350,-93.6417,2.0,250.2432501,40.58914141,-99999.0,'11111222,11111222,99999999' 
TABS,ioos:station:wmo:42051:1,2019-02-04T15:30:00Z,29.6350,-93.6417,2.0,263.3738752,37.00716822,-99999.0,'11111222,11111222,99999999' 
TABS,ioos:station:wmo:42051:1,2019-02-04T16:00:00Z,29.6350,-93.6417,2.0,269.2304415,33.52302045,-99999.0,'11111222,11111222,99999999' 